Tracking 31027 objects as of 19-Jul-2025
HD Live streaming from Space Station
objects crossing your sky now

USA 406

Track USA 406 now!
10-day predictions


NORAD ID: 61027
Int'l Code: 2024-160G
Perigee: 581.4 km
Apogee: 587.0 km
Inclination: 70.0 °
Period: 96.2 minutes
Semi major axis: 6955 km
RCS: Unknown
Launch date: September 6, 2024
Source: United States (US)
Launch site: AIR FORCE WESTERN TEST RANGE (AFWTR)
Your satellite tracking list
FENGYUN 1C DEB
Track 1 satellite(s)




NASA's NSSDC Master Catalog

Two Line Element Set (TLE):
1 61027U 24160G   25194.92371761 0.00000000  00000-0  00000-0 0    09
2 61027  69.9870 127.2006 0004000 181.1896 178.8104 14.96715008    03
Source of the keplerian elements: McCants